Location: Austin
(30.3000°N, 97.7500°W)
Time: 07:26:10
(UTC-06:00)

Cosmos 1821 Rocket - Pass Details

Date: 10 January 2026
Orbit: 944 x 1003 km, 82.9° (Epoch: 22 January)

Event Time Altitude Azimuth Distance (km) Brightness Sun altitude
Rises 19:13:54 0° 357° (N) 3,667 6.9 -18.1°
Reaches altitude 10° 19:16:27 10° 359° (N) 2,708 6.2 -18.6°
Maximum altitude 19:22:37 72° 84° (E) 1,005 3.8 -19.9°
Drops below altitude 10° 19:28:41 10° 168° (SSE) 2,661 6.3 -21.1°
Sets 19:31:09 0° 170° (S) 3,599 7.0 -21.7°
